Вернуться в каталог

FREGAT DEB

LostHEO
NORAD 45970·DEBRIS·🇷🇺 Russia

Запущен Jul 18, 2011 с Baikonur Cosmodrome

Loading…

Ближайшие Пролёты (ближайшие 24 часа)

TLE

УстаревшееSource: Space-Track

Эпоха: Aug 27, 2020, 11:29 UTC

1 45970U 11037GB  20240.47878944  .00048869  00000-0  35911-1 0  9991
2 45970  51.2214 259.6453 2828742 126.9059 262.5739  9.20163749  3155

Отслеживайте FREGAT DEB в реальном времени с AllMySat

Download on the App Store